NOAA 18 (28654 NORAD) Tracking and Keplerian Element Data

This shows tracking and keplerian element data for the satellite.

Feedback or suggestion? Click here.




ElementValue
Catalog28654
NameNOAA 18
Epoch Orbit1604
Epoch Day35.26604064
Epoch Year2025
RAAN116.1165
Inclination98.8533
Eccentricity0.001509
Argument of Perigee123.9847
Mean Anonmoly236.2761
Mean Motion14.13506373
Decay Rate4.04E-06
L11 28654U 05018A 25035.26604064 .00000404 00000+0 23762-3 0 9992
L22 28654 98.8533 116.1165 0015090 123.9847 236.2761 14.13506373 16044



Live tracking and technical data element details for NOAA 18 (NORAD 28654). NOAA 18 can be tracked NOW for your location showing map with azimuth and elevation plus other details from your city location.







IsCatalogInMostPopularTable: catalog: 28654, numindb: 2320
Update: records affected: 1



GetName: 28654 NOAA 18

Hit Count: updated at: Wed, 30 Apr 2025 16:22:02 GMT